Погода в Балхаше

Погода в Балхаше : погода сейчас, прогноз погоды и архив. Всё, что Вы хотите узнать о погоде в Балхаше!

Хотите узнать прогноз погоды в Балхаше? Тогда Вам сюда: Погода в Балхаше

Поиск расширенной информации на нашем сайте:

Другие новости

Новости СМИ2

Главная страница сайта

Новости сайта

03.07.2017

Напоминаем, что на нашем специализированном сайте Метеоцентр.Азия вы можете получить высокодетализированные автоматические прогнозы погоды по пунктам России, СНГ и мира в авиационном формате (включающие направление и скорость ветра, видимость, явления погоды, количество и форму облачности, нижнюю и верхнюю границу облачности).


Погода в Балхаше - сегодня

Время (UTC), дата Ветер
(°,м/с) 
Видим.   Явления Облачность Т
(°С)
Тd
(°С)
f(%) Тe
(°С)
Pmin
(гПа)
dP
(гПа)
Po
(мм)
O2
(г/м3)
Тmin Tmax R s Состояние
почвы
03 17.06.18 100 (В) 20000 м    ясно 
+25.5 +2.2 22 +26  1005.7  -0.8  725  267           
06 17.06.18 190 (Ю) 20000 м    ясно 
+24.6 +15.5 57 +35  1004.4  -1.2  724  264  +16         
09 17.06.18 190 (Ю) 20000 м    ясно 
+29.2 +6.1 23 +29  1002  -1.8  723  262           
12 17.06.18 230 (ЮЗ) 20000 м    ясно 
+30.2 +9.9 28 +32  1000.4  -1.4  722  260           
15 17.06.18 260 (З) 10 км    ясно 
+25.4 +12 43 +30  1000.7  -0.3  721  264    +13       
18 17.06.18 360 (С) 10 км    ясно 
+23.2 +6.9 35 +23  999.9  -1.1  721  266    +31       
21 17.06.18 130 (ЮВ) 10 км    ясно 
+20 +8.8 48 +20  999.5  -0.8  720  269           
00 18.06.18 060 (СВ) 20000 м    3/0 средняя 
[Ac trans]
+18.2 +5.8 44 +19  999.7  -0.1  720  271           
03 18.06.18 250 (З) 20000 м    8/5 1000 м средняя, верхняя 
[Sc|Ac cast|Cc]
+23.9 +13.5 52 +31  999.8  721  264           
06 18.06.18 050 (СВ) 20000 м    3/1 1000 м средняя 
[Cu med, cong|Ac cast]
+30 +5.8 22 +30  998.3  -0.9  720  260  +16.3         
09 18.06.18 190 (Ю) 20000 м    3/3 1000 м 
[Cu med, cong]
+25.1 +16.7 60 +38  998.1  -0.5  720  262           
12 18.06.18 160 (Ю) 20000 м    1/1 1000 м 
[Cu med, cong]
+26.8 +14.3 46 +35  996.8  -1.1  719  261           
15 18.06.18 210 (ЮЗ) 10 км    5/5 1000 м 
[Sc diur, vesp]
+27.5 +13.8 43 +35  995.9  -0.8  718  260    +30.6       
18 18.06.18 270 (З) 10 км    5/5 1000 м 
[Sc]
+25.2 +14.5 51 +34  996.5  0.3  718  262    +30.6       
21 18.06.18 330 (СЗ) 10 км    5/0 средняя 
[Ac trans]
+21.1 +3.8 32 +21  999.7  2.4  720  269           
00 19.06.18 300 (СЗ) 20000 м    1/0 верхняя 
[Ci sp]
+16.1 +7.7 57 +17  1002.8  2.4  722  273           
06 19.06.18 180 (Ю) 20000 м    8/0 верхняя 
[Ci sp]
+21.1 +11.7 55 +25  1005.1  0.3  724  269  +16.1         
09 19.06.18 210 (ЮЗ) 20000 м    8/0 верхняя 
[Ci sp]
+21.9 +11.7 52 +26  1004.7  -0.2  724  268           
12 19.06.18 240 (ЮЗ) 10 км    9/0 средняя, верхняя 
[Ac trans|Ci sp]
+23.6 +11.8 48 +28  1004  -0.4  724  266           
15 19.06.18 260 (З) 10 км    9/6 1000 м верхняя 
[Sc|Ci sp]
+22.4 +11.7 51 +27  1004.6  0.4  724  267    +23.8       
18 19.06.18 040 (СВ) 10 км    6/6 1000 м 
[Sc]
+21.1 +8.8 45 +21  1004.8  724  269    +23.8       
21 19.06.18 030 (СВ) 10 км    10/10 1000 м 
[Sc]
+22.1 +5 33 +22  1005.1  0.3  724  269           
00 20.06.18 350 (С) 10 км    10/10 1000 м 
[Sc]
+20.9 +7.3 41 +21  1007.3  726  270           
03 20.06.18 тихо ()   10 км  слаб. ливневой дождь  10/10 600 м кучево-дожд. 
[Cb cap]
+18.7 +11.3 62 +22  1010  2.4  727  272           
06 20.06.18 180 (Ю) 20000 м  {ливн. осадки}  9/3 1000 м средняя, верхняя 
[Cu med, cong|Ac trans|Ci sp]
+21.4 +13 59 +28  1008.9  -0.8  727  269  +18.7    0.6     
Время (UTC), дата Ветер
(°,м/с) 
Видим.   Явления Облачность Т
(°С)
Тd
(°С)
f(%) Тe
(°С)
Pmin
(гПа)
dP
(гПа)
Po
(мм)
O2
(г/м3)
Тmin Tmax R s Состояние
почвы

Для получения пояснительной информации подведите курсор к названию столбца.

ПОГОДА в Балхаше - архив

Всё, что Вы хотите узнать о погоде в Балхаше - удобно и подробно!

Выберите нужную дату (начиная с 1 января 2015* года) и нажмите кнопку "Найти".
Будут отображены архивные сводки погоды по пункту Балхаш, начиная с указанной даты.


Отображать данные в формате CSV (для использования в таблицах Excel)


Внимание! Наш архив погоды предназначен исключительно для личного некоммерческого использования в познавательных целях. Если Вам необходимы официальные справки о состоянии погоды (для производственных, юридических, коммерческих и т.п. целей), обращайтесь в органы Росгидромета.

*Примечание: данная дата относится к архиву по метеостанциям СССР (Россия, СНГ, Балтия).
Архив по метеостанциям Зарубежной Европы и Азии (кроме Китая) хранится 10 дней, по другим регионам земного шара (Китай, Африка, Америка, Австралия, Океания) - 1 день.

Балхаш - район местоположения метеостанции


Название, широта, долгота, высота метеостанции:
Балхаш 46.8°ш. 75.1°д. 350 м над ур. моря [Казахстан]

Дополнительная информация

В oтличие oт бoльшинства пoгoдных сайтoв мы публикуем пoдрoбную метеoинфoрмацию в детальнoм прoфессиoнальнoм фoрмате.

Характеристики температуры и влажнoсти вoздуха измеряются на высoте 2 м в тени вдали oт зданий и деревьев.
Скoрoсть ветра измеряется на высoте 10 м (на урoвне рoста челoвека скoрoсть ветра ниже в 1.5-2 раза). Если метеoстанция нахoдится в гoрoде или в лесу, тo скoрoсть ветра занижена на 2-4 м/с пo сравнению с oткрытым местoм. Скoрoсть ветра над акватoриями крупных рек и oзёр, а также на вершинах хoлмoв на 2-5 м/с выше, чем в oбычных услoвиях.
Атмoсфернoе давление в разных тoчках местнoсти мoжет значительнo oтличаться oт давления на метеoстанции, в зависимoсти oт услoвий рельефа (при пoдъёме на 10 м давление пoнижается примернo на 1 мм рт.ст.).